COSMOS 2251 DEB

Satellite information

Favourite Embed

Satellite Type and Status

DEBRISIN ORBIT

Key statistics

Satellite COSMOS 2251 DEB at a glance.

Uptime

11815

Days in orbit

Revolutions

≈ 14.4

Per day

Orbit

LEO

Low Earth Orbit

Inclination

74.0

Latest

Satellite identification and parameters

Extended collection of information and parameters for COSMOS 2251 DEB.

Object identification

Identified? True

Debris? True

Object name: COSMOS 2251 DEB

International designator: 1993-036XS

Object number (NORAD): 34672

Object ID (CCSDS): 34672

Country: COMMONWEALTH OF INDEPENDENT STATES (CIS)

Current information (Y/N): Y

RCS size: SMALL

Orbital parameters

Period: 100.258 minutes

Inclination: 74.0346 deg

SMA: 7148.913 km

Apoapsis: 787.612 km

Periapsis: 753.944 km

RAAN: 46.8844 deg

Eccentricy: 0.00235479

Argument of periapsis: 137.3395 deg

Mean anomaly: 241.943 deg

Mean motion: 14.36292035 rev/day

Mean motion (dot): 0.00001197 rev/day2

B* drag term: 0.00041708968 1/REarth

Two-line elements (TLE)

Creation date: Oct. 19, 2025, 2:20 a.m.

Reference frame: TEME

Reference center: EARTH

Epoch: Oct. 18, 2025, 2:24 p.m. UTC

TLE line 0: 0 COSMOS 2251 DEB

TLE line 1: 1 34672U 93036XS 25291.60057911 .00001197 00000-0 41709-3 0 9993

TLE line 2: 2 34672 74.0346 46.8844 0023548 137.3395 241.9430 14.36292035643860

Live tracking on map

Real-time ground track for satellite COSMOS 2251 DEB.

In-orbit conjunctions

A list of the most updated potential collisions computed for object COSMOS 2251 DEB.

Target Orbit TCA Probability of collision Miss distance Type
CZ-4B DEB LEO 2025-09-21 22:57:01 0.0002504537 91.0 (m) DEBRIS
CZ-6A DEB LEO 2025-02-05 07:40:54 0.0001483488 430.0 (m) DEBRIS
CZ-6A DEB LEO 2025-01-10 15:05:10 0.0001795926 727.0 (m) DEBRIS
CZ-6A DEB LEO 2024-10-16 06:08:45 0.0001148414 661.0 (m) DEBRIS

Associated space launch

Military communications satellite. Destroyed in a collision with Iridium 33.

COSMOS 2251 DEB was lifted into orbit during the mission ‘Kosmos-3M | Strela-2M 51’, on board a Kosmos-3M space rocket.

The launch took place on June 16, 1993, 4:17 a.m. from 132/1 (132L).

For more information about the launch, click the button.

Launch to space Kosmos-3M | Strela-2M 51
Kosmos-3M | Strela-2M 51

Agency: N/A

Status: Launch Successful

Launch date: June 16, 1993, 4:17 a.m. UTC

Rocket: Kosmos-3M

Launch pad: 132/1 (132L)

Location: Plesetsk Cosmodrome, Russian Federation

...

Latest news about this satellite

There are no fresh news available about this satellite. Check back as we update our databases every day.


Newsletter sign-up

Weekly statistics, charts and insights to help you stay on top of the space industry.